Victoria, British Columbia

2:17 PM PDT on August 28, 2016 (GMT -0700)
Victoria International

Weather History for CYYJ - January, 2014

Change the Weather History Date:

Thursday, January 23, 2014

  Actual Average Record
Temperature  
Mean Temperature 41 °F -  
Max Temperature 47 °F 46 °F 57 °F (2015)
Min Temperature 35 °F 34 °F 26 °F (2008)
Degree Days  
Heating Degree Days 24    
Moisture  
Dew Point 38 °F    
Average Humidity 94    
Maximum Humidity 100    
Minimum Humidity 70    
Precipitation  
Precipitation 0.00 in 0.14 in - ()
Sea Level Pressure  
Sea Level Pressure 30.48 in    
Wind  
Wind Speed 7 mph ()    
Max Wind Speed 14 mph    
Max Gust Speed -    
Visibility 5.0 miles    
Events Fog    
Averages and records for this station are not official NWS values.
T = Trace of Precipitation, MM = Missing Value Source: Averaged Metar Reports

Daily Weather History Graph

Daily Weather History Graph

Search for Another Location

Airport or City:

Trip Planner

Search our weather history database for the weather conditions in past years. The results will help you decide how hot, cold, wet, or windy it might be!

Date:

Astronomy

Jan. 23, 2014 Rise Set
Actual Time 7:53 AM PST 4:57 PM PST
Civil Twilight 7:19 AM PST 5:32 PM PST
Nautical Twilight 6:40 AM PST 6:11 PM PST
Astronomical Twilight 6:03 AM PST 6:48 PM PST
Moon 12:11 AM PST (1/23) 10:53 AM PST (1/23)
Length of Visible Light 10h 13m
Length of Day
9h 04m
Waning Gibbous, 54% of the Moon is Illuminated
Jan 23
Waning Gibbous
Jan 23
Last Quarter
Jan 30
New
Feb 6
First Quarter
Feb 14
Full

Hourly Weather History & Observations

Time (PST) Temp. Windchill Dew Point Humidity Pressure Visibility Wind Dir Wind Speed Gust Speed Precip Events Conditions
12:00 AM 39.2 °F 34.2 °F 39.2 °F 100% 30.49 in 6.0 mi WNW 6.9 mph - N/A   Overcast
1:00 AM 39.2 °F 35.0 °F 37.4 °F 93% 30.49 in 6.0 mi West 5.8 mph - N/A   Overcast
2:00 AM 39.2 °F 34.2 °F 37.4 °F 93% 30.48 in 5.0 mi West 6.9 mph - N/A   Overcast
3:00 AM 39.2 °F 34.2 °F 37.4 °F 93% 30.49 in 5.0 mi West 6.9 mph - N/A   Overcast
4:00 AM 39 °F - 38 °F 95% 30.50 in 5 mi West 6.9 mph - -   Overcast
4:00 AM 39.2 °F 34.2 °F 37.4 °F 93% 30.50 in 5.0 mi West 6.9 mph - N/A   Overcast
5:00 AM 39.2 °F 33.6 °F 37.4 °F 93% 30.50 in 4.0 mi West 8.1 mph - N/A   Overcast
6:00 AM 37.4 °F 31.4 °F 37.4 °F 100% 30.50 in 4.0 mi West 8.1 mph - N/A   Overcast
7:00 AM 37.4 °F 32.1 °F 37.4 °F 100% 30.50 in 3.0 mi WNW 6.9 mph - N/A   Overcast
8:00 AM 37.4 °F 32.1 °F 37.4 °F 100% 30.50 in 0.8 mi WNW 6.9 mph - N/A   Overcast
9:00 AM 37.4 °F 30.8 °F 37.4 °F 100% 30.51 in 0.6 mi WNW 9.2 mph - N/A   Overcast
9:08 AM 37.4 °F 30.8 °F 37.4 °F 100% 30.51 in 0.5 mi WNW 9.2 mph - N/A Fog Fog
10:00 AM 38 °F - 38 °F 98% 30.51 in 0 mi WNW 10.4 mph - - Fog Heavy Fog
10:00 AM 37.4 °F 29.8 °F 37.4 °F 100% 30.51 in 0.4 mi WNW 11.5 mph - N/A Fog Fog
10:26 AM 39.2 °F 32.0 °F 37.4 °F 93% 30.52 in 0.5 mi WNW 11.5 mph - N/A Fog Fog
10:37 AM 39.2 °F 32.0 °F 39.2 °F 100% 30.52 in 0.6 mi WNW 11.5 mph - N/A   Overcast
11:00 AM 39.2 °F 32.5 °F 39.2 °F 100% 30.52 in 2.0 mi West 10.4 mph - N/A   Overcast
11:06 AM 39.2 °F 31.6 °F 39.2 °F 100% 30.52 in 6.0 mi WNW 12.7 mph - N/A   Overcast
11:15 AM 39.2 °F 31.2 °F 39.2 °F 100% 30.52 in 10.0 mi WNW 13.8 mph - N/A   Mostly Cloudy
11:36 AM 41.0 °F 35.2 °F 39.2 °F 93% 30.51 in 20.0 mi West 9.2 mph - N/A   Mostly Cloudy
12:00 PM 41.0 °F 35.2 °F 39.2 °F 93% 30.50 in 20.0 mi West 9.2 mph - N/A   Mostly Cloudy
1:00 PM 42.8 °F 37.5 °F 39.2 °F 87% 30.48 in 30.0 mi WNW 9.2 mph - N/A   Mostly Cloudy
2:00 PM 46.4 °F 44.3 °F 39.2 °F 76% 30.45 in 30.0 mi West 4.6 mph - N/A   Mostly Cloudy
3:00 PM 46.4 °F 45.2 °F 41.0 °F 81% 30.44 in 30.0 mi NNE 3.5 mph - N/A   Mostly Cloudy
4:00 PM 46 °F - 39 °F 70% 30.43 in 28 mi North 4.6 mph - -   Partly Cloudy
4:00 PM 46.4 °F 43.5 °F 39.2 °F 76% 30.43 in 30.0 mi North 5.8 mph - N/A   Mostly Cloudy
5:00 PM 42.8 °F 40.1 °F 39.2 °F 87% 30.43 in 30.0 mi NE 4.6 mph - N/A   Scattered Clouds
6:00 PM 39.2 °F - 37.4 °F 93% 30.44 in 30.0 mi Variable 2.3 mph - N/A   Partly Cloudy
6:29 PM 35.6 °F - 35.6 °F 100% 30.45 in 30.0 mi Calm Calm - N/A   Partly Cloudy
7:00 PM 37.4 °F - 35.6 °F 93% 30.45 in 30.0 mi WNW 2.3 mph - N/A   Partly Cloudy
8:00 PM 37.4 °F 33.8 °F 35.6 °F 93% 30.45 in 30.0 mi WNW 4.6 mph - N/A   Partly Cloudy
9:00 PM 37.4 °F 32.8 °F 37.4 °F 100% 30.45 in 30.0 mi West 5.8 mph - N/A   Partly Cloudy
10:00 PM 38 °F - 37 °F 95% 30.46 in 28 mi West 4.6 mph - -   Clear
10:00 PM 37.4 °F 33.8 °F 37.4 °F 100% 30.46 in 30.0 mi West 4.6 mph - N/A   Partly Cloudy
11:00 PM 37.4 °F 32.8 °F 37.4 °F 100% 30.45 in 30.0 mi West 5.8 mph - N/A   Clear